Tracking 19193 objects as of 23-Jun-2018
HD Live streaming from Space Station
objects crossing your sky now

SL-14 R/B

Track SL-14 R/B now!
10-day predictions
SL-14 R/B is classified as:


NORAD ID: 11672
Int'l Code: 1980-005B
Perigee: 599.6 km
Apogee: 623.6 km
Inclination: 82.5 °
Period: 96.8 minutes
Semi major axis: 6982 km
RCS: 4.2954 m2 (large)
Launch date: January 23, 1980
Source: Commonwealth of Independent States (former USSR) (CIS)
Launch site: PLESETSK MISSILE AND SPACE COMPLEX (PKMTR)

Note: This is a ROCKET BODY
aabbcc
Your satellite tracking list
Your tracking list is empty




NASA's NSSDC Master Catalog

Two Line Element Set (TLE):
1 11672U 80005B   18174.20147853  .00000073  00000-0  51944-5 0  9999
2 11672  82.5166  89.1816 0017186 160.3976 199.7906 14.87924207 78566
Source of the keplerian elements: AFSPC